Stations météo

réclame
Mon MeteoGroup
Capo Frasca, Italie (16539): Température de l'air & dewpoint: 08.08.2018 19:00:00 - 14.08.2018 19:00:00 (CEST)Capo Frasca, Italie (16539): Vitesse du vent: 08.08.2018 19:00:00 - 14.08.2018 19:00:00 (CEST)Capo Frasca, Italie (16539): Direction du vent: 08.08.2018 19:00:00 - 14.08.2018 19:00:00 (CEST)Capo Frasca, Italie (16539): reduced air pressure: 08.08.2018 19:00:00 - 14.08.2018 19:00:00 (CEST)Capo Frasca, Italie (16539): visibility: 08.08.2018 19:00:00 - 14.08.2018 19:00:00 (CEST)
Date & Time tt [°C] td [°C] ff [km/h] ff [knt] dd ppp [hPa] vv [km]
14.08.2018 19:00:00 - - - - - - -
14.08.2018 18:00:00 - - - - - - -
14.08.2018 17:00:00 21,6 21,6 13 7 NW 1014,9 10
14.08.2018 16:00:00 - - - - - - -
14.08.2018 15:00:00 - - - - - - -
14.08.2018 14:00:00 28,6 27,9 16 9 WNW 1013,4 25
14.08.2018 13:00:00 - - - - - - -
14.08.2018 12:00:00 - - - - - - -
14.08.2018 11:00:00 27,2 25,4 8 4 NW 1013,7 25
14.08.2018 10:00:00 - - - - - - -
14.08.2018 09:00:00 - - - - - - -
14.08.2018 08:00:00 24,0 23,0 5 3 N 1012,8 20
14.08.2018 07:00:00 - - - - - - -
14.08.2018 06:00:00 - - - - - - -
14.08.2018 05:00:00 - - - - - - -
14.08.2018 04:00:00 - - - - - - -
14.08.2018 03:00:00 - - - - - - -
14.08.2018 02:00:00 - - - - - - -
14.08.2018 01:00:00 - - - - - - -
14.08.2018 00:00:00 - - - - - - -
13.08.2018 23:00:00 - - - - - - -
13.08.2018 22:00:00 - - - - - - -
13.08.2018 21:00:00 - - - - - - -
13.08.2018 20:00:00 28,0 28,0 5 3 NW 1012,8 25
13.08.2018 19:00:00 - - - - - - -
13.08.2018 18:00:00 - - - - - - -
13.08.2018 17:00:00 30,0 27,0 18 10 WNW 1012,8 25
13.08.2018 16:00:00 - - - - - - -
13.08.2018 15:00:00 - - - - - - -
13.08.2018 14:00:00 29,2 27,2 16 9 W 1014,0 25
13.08.2018 13:00:00 - - - - - - -
13.08.2018 12:00:00 - - - - - - -
13.08.2018 11:00:00 29,6 22,6 8 4 SW 1013,8 25
13.08.2018 10:00:00 - - - - - - -
13.08.2018 09:00:00 - - - - - - -
13.08.2018 08:00:00 23,0 22,0 5 3 SE 1013,8 25
13.08.2018 07:00:00 - - - - - - -
13.08.2018 06:00:00 - - - - - - -
13.08.2018 05:00:00 - - - - - - -
13.08.2018 04:00:00 - - - - - - -
13.08.2018 03:00:00 - - - - - - -
13.08.2018 02:00:00 - - - - - - -
13.08.2018 01:00:00 - - - - - - -
13.08.2018 00:00:00 - - - - - - -
12.08.2018 23:00:00 - - - - - - -
12.08.2018 22:00:00 - - - - - - -
12.08.2018 21:00:00 - - - - - - -
12.08.2018 20:00:00 27,4 25,2 18 10 NNW 1015,9 20
12.08.2018 19:00:00 - - - - - - -
12.08.2018 18:00:00 - - - - - - -
12.08.2018 17:00:00 28,4 25,2 22 12 NNW 1016,8 20
12.08.2018 16:00:00 - - - - - - -
12.08.2018 15:00:00 - - - - - - -
12.08.2018 14:00:00 28,4 26,2 18 10 NW 1017,5 20
12.08.2018 13:00:00 - - - - - - -
12.08.2018 12:00:00 - - - - - - -
12.08.2018 11:00:00 28,2 24,0 16 9 NNW 1017,5 20
12.08.2018 10:00:00 - - - - - - -
12.08.2018 09:00:00 - - - - - - -
12.08.2018 08:00:00 23,8 23,1 4 2 N 1017,5 20
12.08.2018 07:00:00 - - - - - - -
12.08.2018 06:00:00 - - - - - - -
12.08.2018 05:00:00 - - - - - - -
12.08.2018 04:00:00 - - - - - - -
12.08.2018 03:00:00 - - - - - - -
12.08.2018 02:00:00 - - - - - - -
12.08.2018 01:00:00 - - - - - - -
12.08.2018 00:00:00 - - - - - - -
11.08.2018 23:00:00 - - - - - - -
11.08.2018 22:00:00 - - - - - - -
11.08.2018 21:00:00 - - - - - - -
11.08.2018 20:00:00 27,4 25,6 18 10 NW 1018,2 20
11.08.2018 19:00:00 - - - - - - -
11.08.2018 18:00:00 - - - - - - -
11.08.2018 17:00:00 28,8 28,1 24 13 NNW 1019,2 20
11.08.2018 16:00:00 - - - - - - -
11.08.2018 15:00:00 - - - - - - -
11.08.2018 14:00:00 29,0 25,8 22 12 NW 1019,8 20
11.08.2018 13:00:00 - - - - - - -
11.08.2018 12:00:00 - - - - - - -
11.08.2018 11:00:00 29,2 23,9 9 5 NNW 1019,8 20
11.08.2018 10:00:00 - - - - - - -
11.08.2018 09:00:00 - - - - - - -
11.08.2018 08:00:00 24,2 23,5 2 1 SW 1020,6 20
11.08.2018 07:00:00 - - - - - - -
11.08.2018 06:00:00 - - - - - - -
11.08.2018 05:00:00 - - - - - - -
11.08.2018 04:00:00 - - - - - - -
11.08.2018 03:00:00 - - - - - - -
11.08.2018 02:00:00 - - - - - - -
11.08.2018 01:00:00 - - - - - - -
11.08.2018 00:00:00 - - - - - - -
10.08.2018 23:00:00 - - - - - - -
10.08.2018 22:00:00 - - - - - - -
10.08.2018 21:00:00 - - - - - - -
10.08.2018 20:00:00 28,6 28,6 21 11 NNW 1019,4 20
10.08.2018 19:00:00 - - - - - - -
10.08.2018 18:00:00 - - - - - - -
10.08.2018 17:00:00 30,0 30,0 24 13 NW 1019,6 20
10.08.2018 16:00:00 - - - - - - -
10.08.2018 15:00:00 - - - - - - -
10.08.2018 14:00:00 30,2 26,6 13 7 WNW 1019,8 20
10.08.2018 13:00:00 - - - - - - -
10.08.2018 12:00:00 - - - - - - -
10.08.2018 11:00:00 29,2 27,0 11 6 N 1019,9 20
10.08.2018 10:00:00 - - - - - - -
10.08.2018 09:00:00 - - - - - - -
10.08.2018 08:00:00 23,6 22,8 0 0 N 1018,4 20
10.08.2018 07:00:00 - - - - - - -
10.08.2018 06:00:00 - - - - - - -
10.08.2018 05:00:00 - - - - - - -
10.08.2018 04:00:00 - - - - - - -
10.08.2018 03:00:00 - - - - - - -
10.08.2018 02:00:00 - - - - - - -
10.08.2018 01:00:00 - - - - - - -
10.08.2018 00:00:00 - - - - - - -
09.08.2018 23:00:00 - - - - - - -
09.08.2018 22:00:00 - - - - - - -
09.08.2018 21:00:00 - - - - - - -
09.08.2018 20:00:00 28,4 26,8 13 7 WNW 1015,6 20
09.08.2018 19:00:00 - - - - - - -
09.08.2018 18:00:00 - - - - - - -
09.08.2018 17:00:00 30,0 27,0 16 9 W 1015,3 20
09.08.2018 16:00:00 - - - - - - -
09.08.2018 15:00:00 - - - - - - -
09.08.2018 14:00:00 32,6 29,5 11 6 ENE 1015,3 20
09.08.2018 13:00:00 - - - - - - -
09.08.2018 12:00:00 - - - - - - -
09.08.2018 11:00:00 29,2 25,2 18 10 ESE 1015,6 20
09.08.2018 10:00:00 - - - - - - -
09.08.2018 09:00:00 - - - - - - -
09.08.2018 08:00:00 23,2 22,5 13 7 SE 1015,4 20
09.08.2018 07:00:00 - - - - - - -
09.08.2018 06:00:00 - - - - - - -
09.08.2018 05:00:00 - - - - - - -
09.08.2018 04:00:00 - - - - - - -
09.08.2018 03:00:00 - - - - - - -
09.08.2018 02:00:00 - - - - - - -
09.08.2018 01:00:00 - - - - - - -
09.08.2018 00:00:00 - - - - - - -
08.08.2018 23:00:00 - - - - - - -
08.08.2018 22:00:00 - - - - - - -
08.08.2018 21:00:00 - - - - - - -
08.08.2018 20:00:00 27,0 26,7 21 11 NNW 1014,1 20
08.08.2018 19:00:00 - - - - - - -

tt = Température de l'air
td = dewpoint
ff = Vitesse du vent
dd = Direction du vent
ppp = reduced air pressure
vv = visibility

stations d'obs. à proximité